Simultaneous Nadir Overpasses (SNOs) Predictions

Prediction of SNOs between LANDSAT-8 and METOP-A Satellite Orbit:

Table of predicted SNOs for the next 14.0 days since TLE Epoch: 12/16/2017
Index Date (LANDSAT-8) Time (LANDSAT-8) Lat,Lon (LANDSAT-8) SZA (LANDSAT-8 ) Date (METOP-A) Time (METOP-A) Lat,Lon (METOP-A) SZA (METOP-A ) Distance(km) Time Diff (sec)
1 12/17/2017 17:30:59 81.26, -40.67 106.83 12/17/2017 17:29:48 81.26, -40.81 106.79 2.38 71
2 12/17/2017 18:20:25 -81.28, 127.27 73.13 12/17/2017 18:20:27 -81.28, 127.37 73.12 1.63 2
3 12/20/2017 13:05:15 81.26, 25.76 106.85 12/20/2017 13:04:07 81.26, 25.69 106.82 1.08 68
4 12/20/2017 13:54:41 -81.28,-166.28 73.11 12/20/2017 13:54:46 -81.29,-166.10 73.09 2.94 5
5 12/23/2017 08:39:30 81.26, 92.15 106.80 12/23/2017 08:38:25 81.27, 92.18 106.79 0.82 65
6 12/23/2017 09:28:56 -81.28, -99.86 73.15 12/23/2017 09:29:05 -81.28, -99.98 73.16 2.08 9
7 12/26/2017 04:13:45 81.28, 158.88 106.74 12/26/2017 04:12:43 81.28, 159.04 106.73 2.58 62
8 12/26/2017 05:03:12 -81.28, -33.48 73.26 12/26/2017 05:03:24 -81.28, -33.50 73.26 0.45 12
9 12/28/2017 23:48:01 81.27,-134.80 106.57 12/28/2017 23:47:03 81.27,-134.90 106.53 1.80 58




NCC Satellite Simultaneous Nadir Overpasses (SNOs) Prediction Service
